Overview Statistics Trail Chart Weather Telemetry Raw packets
 

This is the latest recevied weather packets stored in our database for station/object K0FJ-1. If no packets are shown the sender has not sent any weather packets the latest 10 day(s).

<< 67 68 69 70 71 72 73 >>
Time Temp. Humidity Pressure Rain* Wind** Luminosity Snow
1788218703 34.44° C 44% 1015.7 hPa 0 mm - - -
1788218403 34.44° C 44% 1015.8 hPa 0 mm - - -
1788218103 34.44° C 42% 1015.9 hPa 0 mm - - -
1788217803 34.44° C 43% 1015.8 hPa 0 mm - - -
1788217503 34.44° C 44% 1015.9 hPa 0 mm - - -
1788217203 34.44° C 44% 1015.9 hPa 0 mm - - -
1788216903 34.44° C 43% 1016 hPa 0 mm - - -
1788216603 34.44° C 43% 1016.1 hPa 0 mm - - -
1788216303 34.44° C 45% 1016.1 hPa 0 mm - - -
1788216021 34.44° C 45% 1016.1 hPa 0 mm - - -
1788215703 34.44° C 46% 1016.2 hPa 0 mm - - -
1788215403 34.44° C 44% 1016.2 hPa 0 mm - - -
1788215103 34.44° C 44% 1016.2 hPa 0 mm - - -
1788214803 34.44° C 45% 1016.3 hPa 0 mm - - -
1788214503 34.44° C 45% 1016.3 hPa 0 mm - - -
1788214203 34.44° C 45% 1016.2 hPa 0 mm - - -
1788213903 34.44° C 44% 1016.3 hPa 0 mm - - -
1788213603 34.44° C 42% 1016.2 hPa 0 mm - - -
1788213303 34.44° C 45% 1016.3 hPa 0 mm - - -
1788213003 34.44° C 45% 1016.3 hPa 0 mm - - -
1788212703 34.44° C 47% 1016.5 hPa 0 mm - - -
1788212403 34.44° C 45% 1016.5 hPa 0 mm - - -
1788212103 34.44° C 46% 1016.4 hPa 0 mm - - -
1788211803 34.44° C 45% 1016.5 hPa 0 mm - - -
1788211503 34.44° C 46% 1016.5 hPa 0 mm - - -

* Rain latest hour (hover to see other rain measurements)
** Current wind speed in m/s (hover to see current wind gust speed)